Retour au catalogue

COSMOS 1638

ActifMilitaireLEO
NORAD 15620·PAYLOAD·🇷🇺 Russia

Lancé Mar 21, 1985 depuis Plesetsk Cosmodrome

Loading…

Prochains Passages (prochaines 24 heures)

TLE

FraisSource: Space-Track

Époque: Sep 14, 2026, 19:50 UTC

1 15620U 85023D   26257.82699362 -.00000019  00000-0 -21740-4 0  9999
2 15620  74.0527 277.6813 0015339  25.3176 146.9229 12.49215788891929

Suivez COSMOS 1638 en temps réel avec AllMySat

Download on the App Store